When you browse on this site, cookies collect data to enhance your experience and personalize the content and advertising you see.
Visit our Privacy Policy to learn more. By continuing to use the site, you agree to this use of cookies and data.
  • en France
  • Liste des pays
  • À 7 jours
  • Température de l'eau
  • Carte satellitaire
  • Carte météo
  • Widgets météo
  • user-avatar
    Se connecter

    Météo par heure à Naftalan

    Ce jour, 21 Avril, Dimanche

    Heure Température Précipitation Vent Pression Humidité
    00:00 +6°C° 0 mm 5 m/s 768 mmHg 69%
    01:00 +6°C° 0 mm 5 m/s 768 mmHg 70%
    02:00 +5°C° 0 mm 4 m/s 768 mmHg 71%
    03:00 +5°C° 0 mm 4 m/s 768 mmHg 72%
    04:00 +6°C° 0 mm 4 m/s 768 mmHg 71%
    05:00 +6°C° 0 mm 4 m/s 768 mmHg 71%
    06:00 +6°C° 0 mm 4 m/s 768 mmHg 70%
    07:00 +7°C° 0 mm 4 m/s 768 mmHg 67%
    08:00 +8°C° 0 mm 4 m/s 768 mmHg 64%
    09:00 +10°C° 0 mm 4 m/s 769 mmHg 60%
    10:00 +9°C° 0 mm 5 m/s 768 mmHg 59%
    11:00 +10°C° 0 mm 5 m/s 768 mmHg 58%
    12:00 +12°C° 0 mm 5 m/s 768 mmHg 56%
    13:00 +12°C° 0 mm 5 m/s 768 mmHg 58%
    14:00 +12°C° 0 mm 5 m/s 768 mmHg 60%
    15:00 +12°C° 0 mm 5 m/s 768 mmHg 62%
    16:00 +10°C° 0 mm 5 m/s 768 mmHg 65%
    17:00 +10°C° 0 mm 4 m/s 768 mmHg 69%
    18:00 +10°C° 0 mm 4 m/s 768 mmHg 73%
    19:00 +10°C° 0 mm 4 m/s 768 mmHg 75%
    20:00 +9°C° 0 mm 3 m/s 769 mmHg 76%
    21:00 +9°C° 0 mm 3 m/s 769 mmHg 78%
    22:00 +9°C° 0 mm 3 m/s 769 mmHg 78%
    23:00 +8°C° 0 mm 2 m/s 769 mmHg 79%

    Demain, 22 Avril, Lundi

    Heure Température Précipitation Vent Pression Humidité
    00:00 +8°C° 0 mm 2 m/s 769 mmHg 79%
    01:00 +8°C° 0 mm 3 m/s 769 mmHg 78%
    02:00 +8°C° 0 mm 3 m/s 768 mmHg 78%
    03:00 +7°C° 0 mm 4 m/s 768 mmHg 77%
    04:00 +7°C° 0 mm 4 m/s 768 mmHg 77%
    05:00 +7°C° 0 mm 5 m/s 768 mmHg 78%
    06:00 +7°C° 0 mm 5 m/s 768 mmHg 78%
    07:00 +8°C° 0 mm 5 m/s 768 mmHg 74%
    08:00 +9°C° 0 mm 6 m/s 768 mmHg 70%
    09:00 +10°C° 0 mm 6 m/s 768 mmHg 66%
    10:00 +10°C° 0.1 mm 6 m/s 767 mmHg 65%
    11:00 +10°C° 0.1 mm 7 m/s 767 mmHg 65%
    12:00 +11°C° 0.1 mm 7 m/s 767 mmHg 64%
    13:00 +10°C° 0.7 mm 7 m/s 767 mmHg 66%
    14:00 +10°C° 0.7 mm 8 m/s 767 mmHg 68%
    15:00 +9°C° 0.7 mm 8 m/s 767 mmHg 71%
    16:00 +9°C° 1.2 mm 8 m/s 767 mmHg 73%
    17:00 +8°C° 1.2 mm 7 m/s 767 mmHg 76%
    18:00 +8°C° 1.2 mm 7 m/s 767 mmHg 78%
    19:00 +6°C° 0.9 mm 7 m/s 768 mmHg 78%
    20:00 +7°C° 0.9 mm 6 m/s 768 mmHg 77%
    21:00 +7°C° 0.9 mm 6 m/s 769 mmHg 77%
    22:00 +7°C° 0.9 mm 6 m/s 769 mmHg 77%
    23:00 +6°C° 0.9 mm 5 m/s 769 mmHg 78%

    Après-demain, 23 Avril, Mardi

    Heure Température Précipitation Vent Pression Humidité
    00:00 +6°C° 0.9 mm 5 m/s 769 mmHg 79%
    01:00 +6°C° 0.5 mm 5 m/s 769 mmHg 80%
    02:00 +6°C° 0.5 mm 5 m/s 769 mmHg 81%
    03:00 +6°C° 0.5 mm 5 m/s 769 mmHg 82%
    04:00 +6°C° 0.3 mm 5 m/s 770 mmHg 83%
    05:00 +6°C° 0.3 mm 5 m/s 770 mmHg 85%
    06:00 +5°C° 0.3 mm 6 m/s 770 mmHg 86%
    07:00 +5°C° 0.1 mm 6 m/s 771 mmHg 84%
    08:00 +7°C° 0.1 mm 6 m/s 771 mmHg 81%
    09:00 +8°C° 0.1 mm 6 m/s 772 mmHg 78%
    10:00 +9°C° 0 mm 5 m/s 772 mmHg 71%
    11:00 +12°C° 0 mm 4 m/s 772 mmHg 63%
    12:00 +13°C° 0 mm 4 m/s 772 mmHg 56%
    13:00 +13°C° 0 mm 3 m/s 772 mmHg 53%
    14:00 +15°C° 0 mm 2 m/s 772 mmHg 51%
    15:00 +15°C° 0 mm 1 m/s 772 mmHg 48%
    16:00 +15°C° 0 mm 1 m/s 772 mmHg 51%
    17:00 +14°C° 0 mm 2 m/s 772 mmHg 55%
    18:00 +12°C° 0 mm 3 m/s 772 mmHg 58%
    19:00 +13°C° 0 mm 2 m/s 773 mmHg 61%
    20:00 +12°C° 0 mm 2 m/s 773 mmHg 64%
    21:00 +10°C° 0 mm 2 m/s 773 mmHg 66%
    22:00 +10°C° 0 mm 2 m/s 773 mmHg 66%
    23:00 +10°C° 0 mm 1 m/s 773 mmHg 65%

    24 Avril, Mercredi

    Heure Température Précipitation Vent Pression Humidité
    00:00 +10°C° 0 mm 1 m/s 773 mmHg 65%
    01:00 +9°C° 0 mm 2 m/s 773 mmHg 65%
    02:00 +9°C° 0 mm 2 m/s 773 mmHg 64%
    03:00 +9°C° 0 mm 3 m/s 773 mmHg 64%
    04:00 +9°C° 0 mm 3 m/s 773 mmHg 64%
    05:00 +10°C° 0 mm 3 m/s 773 mmHg 65%
    06:00 +10°C° 0 mm 3 m/s 774 mmHg 65%
    07:00 +11°C° 0 mm 3 m/s 774 mmHg 59%
    08:00 +12°C° 0 mm 3 m/s 774 mmHg 53%
    09:00 +14°C° 0 mm 3 m/s 774 mmHg 48%
    10:00 +14°C° 0 mm 4 m/s 774 mmHg 47%
    11:00 +15°C° 0 mm 4 m/s 773 mmHg 46%
    12:00 +15°C° 0 mm 5 m/s 773 mmHg 45%
    13:00 +15°C° 0 mm 5 m/s 773 mmHg 44%
    14:00 +15°C° 0 mm 6 m/s 772 mmHg 44%
    15:00 +15°C° 0 mm 6 m/s 772 mmHg 44%
    16:00 +14°C° 0 mm 6 m/s 772 mmHg 48%
    17:00 +13°C° 0 mm 6 m/s 772 mmHg 51%
    18:00 +11°C° 0 mm 6 m/s 772 mmHg 55%
    19:00 +11°C° 0 mm 6 m/s 772 mmHg 58%
    20:00 +10°C° 0 mm 6 m/s 772 mmHg 62%
    21:00 +10°C° 0 mm 6 m/s 772 mmHg 66%
    22:00 +10°C° 0 mm 6 m/s 772 mmHg 67%
    23:00 +10°C° 0 mm 6 m/s 772 mmHg 68%

    25 Avril, Jeudi

    Heure Température Précipitation Vent Pression Humidité
    00:00 +10°C° 0 mm 6 m/s 772 mmHg 69%
    01:00 +10°C° 0 mm 5 m/s 771 mmHg 70%
    02:00 +10°C° 0 mm 5 m/s 771 mmHg 70%
    03:00 +11°C° 0 mm 4 m/s 771 mmHg 71%
    04:00 +11°C° 0 mm 4 m/s 771 mmHg 71%
    05:00 +11°C° 0 mm 4 m/s 771 mmHg 71%
    06:00 +11°C° 0 mm 4 m/s 771 mmHg 71%
    07:00 +12°C° 0 mm 3 m/s 771 mmHg 67%
    08:00 +13°C° 0 mm 3 m/s 772 mmHg 62%
    09:00 +14°C° 0 mm 3 m/s 772 mmHg 57%
    10:00 +16°C° 0 mm 3 m/s 772 mmHg 54%
    11:00 +17°C° 0 mm 3 m/s 771 mmHg 51%
    12:00 +18°C° 0 mm 2 m/s 771 mmHg 48%
    13:00 +18°C° 0 mm 3 m/s 771 mmHg 49%
    14:00 +18°C° 0 mm 4 m/s 771 mmHg 50%
    15:00 +17°C° 0 mm 5 m/s 771 mmHg 51%
    16:00 +16°C° 0 mm 5 m/s 771 mmHg 56%
    17:00 +15°C° 0 mm 5 m/s 771 mmHg 61%
    18:00 +14°C° 0 mm 4 m/s 772 mmHg 66%
    19:00 +13°C° 0 mm 4 m/s 772 mmHg 68%
    20:00 +12°C° 0 mm 3 m/s 773 mmHg 71%
    21:00 +12°C° 0 mm 3 m/s 773 mmHg 73%
    22:00 +12°C° 0 mm 2 m/s 773 mmHg 74%
    23:00 +12°C° 0 mm 2 m/s 773 mmHg 75%

    26 Avril, Vendredi

    Heure Température Précipitation Vent Pression Humidité
    00:00 +12°C° 0 mm 1 m/s 773 mmHg 75%
    01:00 +11°C° 0 mm 1 m/s 772 mmHg 75%
    02:00 +10°C° 0 mm 0 m/s 772 mmHg 75%
    03:00 +10°C° 0 mm 0 m/s 772 mmHg 74%
    04:00 +10°C° 0 mm 0 m/s 772 mmHg 72%
    05:00 +11°C° 0 mm 0 m/s 772 mmHg 70%
    06:00 +13°C° 0 mm 1 m/s 773 mmHg 68%
    07:00 +14°C° 0 mm 1 m/s 773 mmHg 63%
    08:00 +15°C° 0 mm 2 m/s 773 mmHg 58%
    09:00 +16°C° 0 mm 2 m/s 773 mmHg 53%
    10:00 +17°C° 0 mm 3 m/s 773 mmHg 52%
    11:00 +17°C° 0 mm 4 m/s 772 mmHg 51%
    12:00 +18°C° 0 mm 4 m/s 772 mmHg 51%
    13:00 +17°C° 0 mm 4 m/s 772 mmHg 51%
    14:00 +16°C° 0 mm 5 m/s 771 mmHg 52%
    15:00 +16°C° 0 mm 5 m/s 771 mmHg 53%
    16:00 +15°C° 0 mm 4 m/s 771 mmHg 57%
    17:00 +14°C° 0 mm 4 m/s 771 mmHg 61%
    18:00 +14°C° 0 mm 4 m/s 771 mmHg 65%
    19:00 +13°C° 0 mm 4 m/s 772 mmHg 67%
    20:00 +12°C° 0 mm 4 m/s 772 mmHg 69%
    21:00 +12°C° 0 mm 4 m/s 772 mmHg 71%
    22:00 +12°C° 0 mm 4 m/s 772 mmHg 71%
    23:00 +11°C° 0 mm 4 m/s 772 mmHg 70%
    Voir plus